Flag for U.S.A. Weather past 2 weeks in Boca Raton, Florida, U.S.A.

Now
81 °F

Scattered clouds.


Feels Like: 83 °F
Forecast: 72 / 81 °F
Wind: 8 mph from East

Location: Boca Raton Airport

Current Time: May 6, 2015 at 3:38:06 PM

Latest Report: May 6, 2015 at 2:53 PM


Visibility: 10 mi

Pressure: 30.01 "Hg

Humidity: 66%

Dew point: 68 °F

Location of Boca RatonLocation

Historic Weather in Boca Raton — Graph

°F

Boca Raton temperature yesterday

Maximum temperature yesterday: 77 °F (at 3:53 PM)
Minimum temperature yesterday: 72 °F (at 6:50 AM)
Average temperature yesterday: 74 °F

Past Weeks' High & Low Weather Summary

 TemperatureHumidityPressure
High99 °F (Apr 26, 2:53 PM)94% (Apr 23, 4:53 PM)30.18 "Hg (Apr 23, 4:53 PM)
Low70 °F (May 6, 6:53 AM)37% (Apr 26, 2:53 PM)29.69 "Hg (Apr 29, 4:51 PM)
Average79 °F70%29.94 "Hg
* Reported Apr 21 1:47 PM — May 6 1:50 PM, Boca Raton, Weather by CustomWeather, © 2015

Note: Actual official high and low records may vary slightly from our data, if they occured in-between our weather recording intervals... More about our weather records

Advertising

Boca Raton weather history for previous 24 hours

 ConditionsComfort  
Time TempWeatherWind HumidityBarometerVisibility
1:50 PM
Wed, May 6
79 °FBroken clouds.10 mph65%30.03 "Hg10 mi
12:47 PM75 °FLight rain. Mostly cloudy.20 mph74%30.05 "Hg7 mi
11:51 AM77 °FPartly sunny.12 mph74%30.05 "Hg10 mi
10:49 AM75 °FPartly sunny.12 mph83%30.05 "Hg10 mi
9:50 AM72 °FMore clouds than sun.6 mph88%30.04 "Hg3 mi
8:50 AM72 °FMore clouds than sun.7 mph88%30.02 "Hg10 mi
7:47 AM70 °FMostly cloudy.9 mph94%30.01 "Hg7 mi
6:53 AM70 °FPartly cloudy.9 mph94%29.99 "Hg9 mi
10:53 PM
Tue, May 5
72 °FHeavy rain. Mostly cloudy.12 mph88%30.06 "Hg1 mi
9:53 PM73 °FPartly cloudy.10 mph83%30.05 "Hg10 mi
8:53 PM75 °FScattered clouds.9 mph78%30.05 "Hg10 mi
7:53 PM75 °FScattered clouds.10 mph74%30.05 "Hg10 mi
6:53 PM75 °FMostly cloudy.14 mph78%30.04 "Hg10 mi
5:53 PM77 °FBroken clouds.13 mph74%30.04 "Hg10 mi
4:53 PM77 °FBroken clouds.13 mph74%30.04 "Hg10 mi
3:53 PM77 °FBroken clouds.9 mph74%30.05 "Hg10 mi
Weather by CustomWeather, © 2015

See weather overviewHow to use our weather pages